Year,Month,Day,Hour,Minute,Value (Times are PST for temperature in C)
2005,08,14,00,00,15.00
2005,08,14,00,01,15.00
2005,08,14,00,02,15.00
2005,08,14,00,03,15.00
2005,08,14,00,04,15.00
2005,08,14,00,05,14.90
2005,08,14,00,06,14.90
2005,08,14,00,07,14.90
2005,08,14,00,08,14.90
2005,08,14,00,09,14.90
2005,08,14,00,10,14.90
2005,08,14,00,11,14.90
2005,08,14,00,12,14.90
2005,08,14,00,14,14.80
2005,08,14,00,16,14.80
2005,08,14,00,18,14.80
2005,08,14,00,19,14.80
2005,08,14,00,22,14.70
2005,08,14,00,23,14.70
2005,08,14,00,26,14.60
2005,08,14,00,27,14.60
2005,08,14,00,29,14.60
2005,08,14,00,32,14.60
2005,08,14,00,33,14.60
2005,08,14,00,35,14.50
2005,08,14,00,36,14.50
2005,08,14,00,37,14.50
2005,08,14,00,38,14.50
2005,08,14,00,39,14.50
2005,08,14,00,42,14.50
2005,08,14,00,44,14.50
2005,08,14,00,45,14.40
2005,08,14,00,47,14.40
2005,08,14,00,48,14.40
2005,08,14,00,49,14.40
2005,08,14,00,51,14.30
2005,08,14,00,52,14.30
2005,08,14,00,53,14.30
2005,08,14,00,54,14.20
2005,08,14,00,55,14.20
2005,08,14,00,56,14.20
2005,08,14,00,57,14.20
2005,08,14,00,58,14.20
2005,08,14,00,59,14.20
2005,08,14,01,00,14.10
2005,08,14,01,03,14.10
2005,08,14,01,05,14.10
2005,08,14,01,06,14.10
2005,08,14,01,07,14.10
2005,08,14,01,09,14.10
2005,08,14,01,10,14.00
2005,08,14,01,12,14.00
2005,08,14,01,13,14.00
2005,08,14,01,14,14.00
2005,08,14,01,15,14.00
2005,08,14,01,16,13.90
2005,08,14,01,17,13.90
2005,08,14,01,20,13.80
2005,08,14,01,21,13.80
2005,08,14,01,23,13.80
2005,08,14,01,24,13.80
2005,08,14,01,27,13.70
2005,08,14,01,33,13.70
2005,08,14,01,35,13.70
2005,08,14,01,37,13.70
2005,08,14,01,42,13.70
2005,08,14,01,45,13.70
2005,08,14,01,46,13.70
2005,08,14,01,48,13.70
2005,08,14,01,49,13.70
2005,08,14,01,50,13.70
2005,08,14,01,51,13.70
2005,08,14,01,52,13.70
2005,08,14,01,53,13.70
2005,08,14,01,54,13.70
2005,08,14,01,56,13.70
2005,08,14,01,57,13.70
2005,08,14,01,59,13.70
2005,08,14,02,00,13.70
2005,08,14,02,07,13.80
2005,08,14,02,10,13.70
2005,08,14,02,13,13.70
2005,08,14,02,15,13.70
2005,08,14,02,17,13.70
2005,08,14,02,18,13.70
2005,08,14,02,19,13.70
2005,08,14,02,20,13.70
2005,08,14,02,21,13.70
2005,08,14,02,22,13.70
2005,08,14,02,23,13.60
2005,08,14,02,24,13.50
2005,08,14,02,25,13.50
2005,08,14,02,26,13.50
2005,08,14,02,27,13.50
2005,08,14,02,28,13.50
2005,08,14,02,29,13.50
2005,08,14,02,30,13.50
2005,08,14,02,31,13.50
2005,08,14,02,32,13.50
2005,08,14,02,33,13.60
2005,08,14,02,34,13.60
2005,08,14,02,35,13.60
2005,08,14,02,36,13.60
2005,08,14,02,37,13.60
2005,08,14,02,38,13.60
2005,08,14,02,39,13.60
2005,08,14,02,40,13.60
2005,08,14,02,41,13.60
2005,08,14,02,42,13.60
2005,08,14,02,43,13.60
2005,08,14,02,44,13.60
2005,08,14,02,45,13.70
2005,08,14,02,46,13.70
2005,08,14,02,47,13.70
2005,08,14,02,48,13.70
2005,08,14,02,49,13.70
2005,08,14,02,50,13.70
2005,08,14,02,51,13.70
2005,08,14,02,52,13.70
2005,08,14,02,53,13.70
2005,08,14,02,54,13.70
2005,08,14,02,55,13.70
2005,08,14,02,56,13.70
2005,08,14,02,57,13.70
2005,08,14,02,58,13.90
2005,08,14,02,59,13.90
2005,08,14,03,00,14.00
2005,08,14,03,01,14.00
2005,08,14,03,02,14.00
2005,08,14,03,03,14.00
2005,08,14,03,04,14.10
2005,08,14,03,05,14.10
2005,08,14,03,06,14.10
2005,08,14,03,07,14.20
2005,08,14,03,08,14.20
2005,08,14,03,09,14.20
2005,08,14,03,10,14.20
2005,08,14,03,11,14.20
2005,08,14,03,12,14.20
2005,08,14,03,13,14.20
2005,08,14,03,14,14.20
2005,08,14,03,15,14.20
2005,08,14,03,16,14.20
2005,08,14,03,17,14.20
2005,08,14,03,18,14.20
2005,08,14,03,19,14.20
2005,08,14,03,20,14.20
2005,08,14,03,21,14.30
2005,08,14,03,22,14.30
2005,08,14,03,23,14.30
2005,08,14,03,24,14.30
2005,08,14,03,25,14.30
2005,08,14,03,26,14.30
2005,08,14,03,27,14.30
2005,08,14,03,28,14.20
2005,08,14,03,29,14.20
2005,08,14,03,30,14.20
2005,08,14,03,31,14.20
2005,08,14,03,32,14.20
2005,08,14,03,33,14.20
2005,08,14,03,34,14.20
2005,08,14,03,35,14.20
2005,08,14,03,36,14.20
2005,08,14,03,37,14.20
2005,08,14,03,38,14.20
2005,08,14,03,39,14.20
2005,08,14,03,40,14.20
2005,08,14,03,41,14.20
2005,08,14,03,42,14.20
2005,08,14,03,43,14.20
2005,08,14,03,44,14.20
2005,08,14,03,45,14.20
2005,08,14,03,46,14.20
2005,08,14,03,47,14.20
2005,08,14,03,48,14.10
2005,08,14,03,49,14.10
2005,08,14,03,50,14.10
2005,08,14,03,51,14.10
2005,08,14,03,52,14.10
2005,08,14,03,53,14.10
2005,08,14,03,54,14.10
2005,08,14,03,55,14.10
2005,08,14,03,56,14.10
2005,08,14,03,57,14.10
2005,08,14,03,58,14.10
2005,08,14,03,59,14.10
2005,08,14,04,00,14.10
2005,08,14,04,01,14.10
2005,08,14,04,02,14.10
2005,08,14,04,03,14.20
2005,08,14,04,04,14.20
2005,08,14,04,05,14.20
2005,08,14,04,06,14.20
2005,08,14,04,07,14.20
2005,08,14,04,08,14.20
2005,08,14,04,09,14.30
2005,08,14,04,10,14.30
2005,08,14,04,11,14.40
2005,08,14,04,12,14.40
2005,08,14,04,13,14.40
2005,08,14,04,14,14.30
2005,08,14,04,15,14.30
2005,08,14,04,16,14.30
2005,08,14,04,17,14.30
2005,08,14,04,18,14.30
2005,08,14,04,19,14.30
2005,08,14,04,20,14.30
2005,08,14,04,21,14.30
2005,08,14,04,22,14.30
2005,08,14,04,23,14.30
2005,08,14,04,24,14.30
2005,08,14,04,25,14.30
2005,08,14,04,26,14.30
2005,08,14,04,27,14.30
2005,08,14,04,28,14.30
2005,08,14,04,29,14.30
2005,08,14,04,30,14.30
2005,08,14,04,31,14.30
2005,08,14,04,32,14.30
2005,08,14,04,33,14.30
2005,08,14,04,34,14.30
2005,08,14,04,35,14.20
2005,08,14,04,36,14.20
2005,08,14,04,37,14.20
2005,08,14,04,38,14.20
2005,08,14,04,39,14.20
2005,08,14,04,40,14.20
2005,08,14,04,41,14.20
2005,08,14,04,42,14.20
2005,08,14,04,43,14.20
2005,08,14,04,44,14.10
2005,08,14,04,45,14.10
2005,08,14,04,46,14.10
2005,08,14,04,47,14.10
2005,08,14,04,48,14.00
2005,08,14,04,49,14.00
2005,08,14,04,50,14.00
2005,08,14,04,51,14.00
2005,08,14,04,52,14.00
2005,08,14,04,53,14.00
2005,08,14,04,54,13.90
2005,08,14,04,55,13.90
2005,08,14,04,56,13.90
2005,08,14,04,57,13.90
2005,08,14,04,58,13.90
2005,08,14,04,59,13.90
2005,08,14,05,00,13.90
2005,08,14,05,01,13.90
2005,08,14,05,02,13.90
2005,08,14,05,03,13.90
2005,08,14,05,04,13.90
2005,08,14,05,05,13.90
2005,08,14,05,06,13.90
2005,08,14,05,07,13.90
2005,08,14,05,08,13.90
2005,08,14,05,09,13.90
2005,08,14,05,10,13.90
2005,08,14,05,11,13.90
2005,08,14,05,12,13.90
2005,08,14,05,13,13.90
2005,08,14,05,14,13.90
2005,08,14,05,15,13.90
2005,08,14,05,16,13.90
2005,08,14,05,17,13.90
2005,08,14,05,18,13.90
2005,08,14,05,19,13.90
2005,08,14,05,20,13.90
2005,08,14,05,21,13.90
2005,08,14,05,22,13.90
2005,08,14,05,23,13.90
2005,08,14,05,24,13.90
2005,08,14,05,25,13.90
2005,08,14,05,26,13.90
2005,08,14,05,27,13.90
2005,08,14,05,28,13.80
2005,08,14,05,29,13.80
2005,08,14,05,30,13.80
2005,08,14,05,31,13.80
2005,08,14,05,32,13.80
2005,08,14,05,33,13.80
2005,08,14,05,34,13.80
2005,08,14,05,35,13.80
2005,08,14,05,36,13.80
2005,08,14,05,37,13.80
2005,08,14,05,38,13.80
2005,08,14,05,39,13.80
2005,08,14,05,40,13.80
2005,08,14,05,41,13.80
2005,08,14,05,42,13.80
2005,08,14,05,43,13.70
2005,08,14,05,44,13.70
2005,08,14,05,45,13.70
2005,08,14,05,46,13.70
2005,08,14,05,47,13.70
2005,08,14,05,48,13.70
2005,08,14,05,49,13.70
2005,08,14,05,50,13.70
2005,08,14,05,51,13.70
2005,08,14,05,52,13.70
2005,08,14,05,53,13.70
2005,08,14,05,54,13.60
2005,08,14,05,55,13.60
2005,08,14,05,56,13.60
2005,08,14,05,57,13.60
2005,08,14,05,58,13.60
2005,08,14,05,59,13.60
2005,08,14,06,00,13.60
2005,08,14,06,01,13.60
2005,08,14,06,02,13.60
2005,08,14,06,03,13.60
2005,08,14,06,04,13.60
2005,08,14,06,05,13.60
2005,08,14,06,06,13.60
2005,08,14,06,07,13.60
2005,08,14,06,08,13.60
2005,08,14,06,09,13.60
2005,08,14,06,10,13.60
2005,08,14,06,11,13.60
2005,08,14,06,12,13.60
2005,08,14,06,13,13.60
2005,08,14,06,14,13.60
2005,08,14,06,15,13.50
2005,08,14,06,16,13.50
2005,08,14,06,17,13.50
2005,08,14,06,18,13.50
2005,08,14,06,19,13.50
2005,08,14,06,20,13.50
2005,08,14,06,21,13.50
2005,08,14,06,22,13.50
2005,08,14,06,23,13.50
2005,08,14,06,24,13.50
2005,08,14,06,25,13.50
2005,08,14,06,26,13.60
2005,08,14,06,27,13.60
2005,08,14,06,28,13.50
2005,08,14,06,29,13.50
2005,08,14,06,30,13.50
2005,08,14,06,31,13.50
2005,08,14,06,32,13.50
2005,08,14,06,33,13.50
2005,08,14,06,34,13.50
2005,08,14,06,35,13.50
2005,08,14,06,36,13.50
2005,08,14,06,37,13.50
2005,08,14,06,38,13.50
2005,08,14,06,39,13.50
2005,08,14,06,40,13.50
2005,08,14,06,41,13.50
2005,08,14,06,42,13.50
2005,08,14,06,43,13.60
2005,08,14,06,44,13.60
2005,08,14,06,45,13.60
2005,08,14,06,46,13.70
2005,08,14,06,47,13.70
2005,08,14,06,48,13.70
2005,08,14,06,49,13.80
2005,08,14,06,50,13.80
2005,08,14,06,51,13.90
2005,08,14,06,52,13.90
2005,08,14,06,53,14.00
2005,08,14,06,54,14.00
2005,08,14,06,55,14.10
2005,08,14,06,56,14.10
2005,08,14,06,57,14.10
2005,08,14,06,58,14.10
2005,08,14,06,59,14.20
2005,08,14,07,00,14.20
2005,08,14,07,01,14.20
2005,08,14,07,02,14.20
2005,08,14,07,03,14.20
2005,08,14,07,04,14.20
2005,08,14,07,05,14.20
2005,08,14,07,06,14.30
2005,08,14,07,07,14.30
2005,08,14,07,08,14.40
2005,08,14,07,09,14.40
2005,08,14,07,10,14.50
2005,08,14,07,11,14.50
2005,08,14,07,12,14.50
2005,08,14,07,13,14.50
2005,08,14,07,14,14.50
2005,08,14,07,15,14.50
2005,08,14,07,16,14.60
2005,08,14,07,17,14.60
2005,08,14,07,18,14.60
2005,08,14,07,19,14.60
2005,08,14,07,20,14.60
2005,08,14,07,21,14.60
2005,08,14,07,22,14.70
2005,08,14,07,23,14.70
2005,08,14,07,24,14.80
2005,08,14,07,25,14.80
2005,08,14,07,26,14.80
2005,08,14,07,27,14.90
2005,08,14,07,28,14.90
2005,08,14,07,29,15.00
2005,08,14,07,30,15.00
2005,08,14,07,31,15.10
2005,08,14,07,32,15.20
2005,08,14,07,33,15.30
2005,08,14,07,34,15.40
2005,08,14,07,35,15.50
2005,08,14,07,36,15.60
2005,08,14,07,37,15.70
2005,08,14,07,38,15.80
2005,08,14,07,39,15.90
2005,08,14,07,40,16.00
2005,08,14,07,41,16.10
2005,08,14,07,42,16.10
2005,08,14,07,43,16.10
2005,08,14,07,44,16.20
2005,08,14,07,45,16.20
2005,08,14,07,46,16.30
2005,08,14,07,47,16.30
2005,08,14,07,48,16.40
2005,08,14,07,49,16.40
2005,08,14,07,50,16.40
2005,08,14,07,51,16.50
2005,08,14,07,52,16.60
2005,08,14,07,53,16.60
2005,08,14,07,54,16.70
2005,08,14,07,55,16.70
2005,08,14,07,56,16.70
2005,08,14,07,57,16.70
2005,08,14,07,58,16.70
2005,08,14,07,59,16.80
2005,08,14,08,00,16.90
2005,08,14,08,01,17.00
2005,08,14,08,02,17.00
2005,08,14,08,03,17.10
2005,08,14,08,04,17.10
2005,08,14,08,05,17.10
2005,08,14,08,06,17.20
2005,08,14,08,07,17.20
2005,08,14,08,08,17.20
2005,08,14,08,09,17.20
2005,08,14,08,10,17.30
2005,08,14,08,11,17.30
2005,08,14,08,12,17.40
2005,08,14,08,13,17.50
2005,08,14,08,14,17.50
2005,08,14,08,15,17.60
2005,08,14,08,16,17.70
2005,08,14,08,17,17.70
2005,08,14,08,18,17.70
2005,08,14,08,19,17.70
2005,08,14,08,20,17.70
2005,08,14,08,21,17.70
2005,08,14,08,22,17.80
2005,08,14,08,23,17.80
2005,08,14,08,24,17.70
2005,08,14,08,25,17.70
2005,08,14,08,26,17.60
2005,08,14,08,27,17.60
2005,08,14,08,28,17.50
2005,08,14,08,29,17.50
2005,08,14,08,30,17.50
2005,08,14,08,31,17.50
2005,08,14,08,32,17.50
2005,08,14,08,33,17.50
2005,08,14,08,34,17.50
2005,08,14,08,35,17.50
2005,08,14,08,36,17.60
2005,08,14,08,37,17.60
2005,08,14,08,38,17.60
2005,08,14,08,39,17.70
2005,08,14,08,40,17.80
2005,08,14,08,41,17.80
2005,08,14,08,42,17.80
2005,08,14,08,43,17.80
2005,08,14,08,44,17.90
2005,08,14,08,45,17.90
2005,08,14,08,46,17.90
2005,08,14,08,47,17.90
2005,08,14,08,48,18.10
2005,08,14,08,49,18.10
2005,08,14,08,50,18.20
2005,08,14,08,51,18.30
2005,08,14,08,52,18.40
2005,08,14,08,53,18.50
2005,08,14,08,54,18.50
2005,08,14,08,55,18.60
2005,08,14,08,56,18.60
2005,08,14,08,57,18.70
2005,08,14,08,58,18.70
2005,08,14,08,59,18.70
2005,08,14,09,00,18.80
2005,08,14,09,01,18.80
2005,08,14,09,02,18.90
2005,08,14,09,03,19.00
2005,08,14,09,04,19.10
2005,08,14,09,05,19.20
2005,08,14,09,06,19.20
2005,08,14,09,07,19.20
2005,08,14,09,08,19.20
2005,08,14,09,09,19.10
2005,08,14,09,10,19.10
2005,08,14,09,11,19.10
2005,08,14,09,12,19.10
2005,08,14,09,13,19.10
2005,08,14,09,14,19.10
2005,08,14,09,15,19.10
2005,08,14,09,16,19.10
2005,08,14,09,17,19.10
2005,08,14,09,18,19.20
2005,08,14,09,19,19.30
2005,08,14,09,20,19.40
2005,08,14,09,21,19.50
2005,08,14,09,22,19.60
2005,08,14,09,23,19.70
2005,08,14,09,24,19.80
2005,08,14,09,25,19.90
2005,08,14,09,26,19.90
2005,08,14,09,27,19.90
2005,08,14,09,28,20.00
2005,08,14,09,29,19.90
2005,08,14,09,30,19.90
2005,08,14,09,31,19.80
2005,08,14,09,32,19.80
2005,08,14,09,33,19.80
2005,08,14,09,34,19.80
2005,08,14,09,35,19.70
2005,08,14,09,36,19.40
2005,08,14,09,37,19.30
2005,08,14,09,38,19.30
2005,08,14,09,39,19.20
2005,08,14,09,40,19.20
2005,08,14,09,41,19.20
2005,08,14,09,42,19.20
2005,08,14,09,43,19.20
2005,08,14,09,44,19.20
2005,08,14,09,45,19.10
2005,08,14,09,46,19.10
2005,08,14,09,47,19.10
2005,08,14,09,48,19.10
2005,08,14,09,49,19.10
2005,08,14,09,50,19.20
2005,08,14,09,51,19.20
2005,08,14,09,52,19.20
2005,08,14,09,53,19.30
2005,08,14,09,54,19.30
2005,08,14,09,55,19.30
2005,08,14,09,56,19.30
2005,08,14,09,57,19.40
2005,08,14,09,58,19.50
2005,08,14,09,59,19.60
2005,08,14,10,00,19.60
2005,08,14,10,01,19.70
2005,08,14,10,02,19.80
2005,08,14,10,03,19.90
2005,08,14,10,04,20.00
2005,08,14,10,05,20.10
2005,08,14,10,06,20.20
2005,08,14,10,07,20.20
2005,08,14,10,08,20.30
2005,08,14,10,09,20.30
2005,08,14,10,10,20.40
2005,08,14,10,11,20.40
2005,08,14,10,12,20.40
2005,08,14,10,13,20.30
2005,08,14,10,14,20.30
2005,08,14,10,15,20.20
2005,08,14,10,16,20.20
2005,08,14,10,17,20.20
2005,08,14,10,18,20.20
2005,08,14,10,19,20.20
2005,08,14,10,20,20.20
2005,08,14,10,21,20.20
2005,08,14,10,22,20.20
2005,08,14,10,23,20.20
2005,08,14,10,24,20.20
2005,08,14,10,25,20.20
2005,08,14,10,26,20.20
2005,08,14,10,27,20.30
2005,08,14,10,28,20.40
2005,08,14,10,29,20.40
2005,08,14,10,30,20.50
2005,08,14,10,31,20.50
2005,08,14,10,32,20.60
2005,08,14,10,33,20.60
2005,08,14,10,34,20.70
2005,08,14,10,35,20.70
2005,08,14,10,36,20.80
2005,08,14,10,37,20.80
2005,08,14,10,38,20.80
2005,08,14,10,39,20.90
2005,08,14,10,40,20.80
2005,08,14,10,41,20.90
2005,08,14,10,42,21.00
2005,08,14,10,43,21.00
2005,08,14,10,44,21.00
2005,08,14,10,45,21.20
2005,08,14,10,46,21.30
2005,08,14,10,47,21.30
2005,08,14,10,48,21.40
2005,08,14,10,49,21.40
2005,08,14,10,50,21.60
2005,08,14,10,51,21.60
2005,08,14,10,52,21.60
2005,08,14,10,53,21.60
2005,08,14,10,54,21.60
2005,08,14,10,55,21.60
2005,08,14,10,56,21.60
2005,08,14,10,57,21.70
2005,08,14,10,58,21.80
2005,08,14,10,59,21.90
2005,08,14,11,00,22.00
2005,08,14,11,01,22.10
2005,08,14,11,02,22.10
2005,08,14,11,03,22.10
2005,08,14,11,04,22.10
2005,08,14,11,05,22.20
2005,08,14,11,06,22.30
2005,08,14,11,07,22.30
2005,08,14,11,08,22.40
2005,08,14,11,09,22.40
2005,08,14,11,10,22.40
2005,08,14,11,11,22.50
2005,08,14,11,12,22.50
2005,08,14,11,13,22.70
2005,08,14,11,14,22.80
2005,08,14,11,15,22.90
2005,08,14,11,16,22.90
2005,08,14,11,17,23.10
2005,08,14,11,18,23.10
2005,08,14,11,19,23.20
2005,08,14,11,20,23.10
2005,08,14,11,21,22.90
2005,08,14,11,22,22.80
2005,08,14,11,23,22.70
2005,08,14,11,24,22.60
2005,08,14,11,25,22.60
2005,08,14,11,26,22.60
2005,08,14,11,27,22.60
2005,08,14,11,28,22.70
2005,08,14,11,29,22.70
2005,08,14,11,30,22.70
2005,08,14,11,31,22.70
2005,08,14,11,32,22.70
2005,08,14,11,33,22.80
2005,08,14,11,34,22.80
2005,08,14,11,35,22.90
2005,08,14,11,36,22.90
2005,08,14,11,37,22.80
2005,08,14,11,38,22.80
2005,08,14,11,39,22.70
2005,08,14,11,40,22.80
2005,08,14,11,41,22.80
2005,08,14,11,42,22.80
2005,08,14,11,43,22.80
2005,08,14,11,44,22.80
2005,08,14,11,45,22.80
2005,08,14,11,46,22.80
2005,08,14,11,47,22.60
2005,08,14,11,48,22.60
2005,08,14,11,49,22.60
2005,08,14,11,50,22.50
2005,08,14,11,51,22.60
2005,08,14,11,52,22.70
2005,08,14,11,53,22.70
2005,08,14,11,54,22.60
2005,08,14,11,55,22.60
2005,08,14,11,56,22.50
2005,08,14,11,57,22.40
2005,08,14,11,58,22.40
2005,08,14,11,59,22.30
2005,08,14,12,00,22.20
2005,08,14,12,01,22.10
2005,08,14,12,02,22.10
2005,08,14,12,03,22.10
2005,08,14,12,04,22.20
2005,08,14,12,05,22.20
2005,08,14,12,06,22.30
2005,08,14,12,07,22.30
2005,08,14,12,08,22.50
2005,08,14,12,09,22.50
2005,08,14,12,10,22.70
2005,08,14,12,11,22.70
2005,08,14,12,12,22.80
2005,08,14,12,13,22.90
2005,08,14,12,14,22.90
2005,08,14,12,15,23.10
2005,08,14,12,16,23.10
2005,08,14,12,17,23.10
2005,08,14,12,18,23.10
2005,08,14,12,19,23.20
2005,08,14,12,20,23.60
2005,08,14,12,21,23.70
2005,08,14,12,22,23.70
2005,08,14,12,23,23.80
2005,08,14,12,24,24.00
2005,08,14,12,25,24.10
2005,08,14,12,26,24.10
2005,08,14,12,27,24.10
2005,08,14,12,28,24.10
2005,08,14,12,29,24.20
2005,08,14,12,30,24.20
2005,08,14,12,31,24.20
2005,08,14,12,32,24.20
2005,08,14,12,33,24.10
2005,08,14,12,34,24.10
2005,08,14,12,35,24.10
2005,08,14,12,36,24.10
2005,08,14,12,37,24.10
2005,08,14,12,38,24.30
2005,08,14,12,39,24.30
2005,08,14,12,40,24.30
2005,08,14,12,41,24.40
2005,08,14,12,42,24.40
2005,08,14,12,43,24.40
2005,08,14,12,44,24.40
2005,08,14,12,45,24.30
2005,08,14,12,46,24.30
2005,08,14,12,47,24.20
2005,08,14,12,48,24.30
2005,08,14,12,49,24.30
2005,08,14,12,50,24.40
2005,08,14,12,51,24.40
2005,08,14,12,52,24.40
2005,08,14,12,53,24.50
2005,08,14,12,54,24.60
2005,08,14,12,55,24.70
2005,08,14,12,56,24.70
2005,08,14,12,57,24.80
2005,08,14,12,58,24.80
2005,08,14,12,59,24.80
2005,08,14,13,00,24.80
2005,08,14,13,01,24.90
2005,08,14,13,02,24.90
2005,08,14,13,03,24.90
2005,08,14,13,04,24.90
2005,08,14,13,05,25.10
2005,08,14,13,06,25.20
2005,08,14,13,07,25.20
2005,08,14,13,08,25.10
2005,08,14,13,09,25.20
2005,08,14,13,10,25.30
2005,08,14,13,11,25.30
2005,08,14,13,12,25.40
2005,08,14,13,13,25.40
2005,08,14,13,14,25.40
2005,08,14,13,15,25.40
2005,08,14,13,16,25.30
2005,08,14,13,17,25.20
2005,08,14,13,18,25.10
2005,08,14,13,19,25.00
2005,08,14,13,20,25.00
2005,08,14,13,21,25.00
2005,08,14,13,22,25.00
2005,08,14,13,23,24.90
2005,08,14,13,24,25.00
2005,08,14,13,25,24.90
2005,08,14,13,26,25.10
2005,08,14,13,27,25.20
2005,08,14,13,28,25.20
2005,08,14,13,29,25.20
2005,08,14,13,30,25.20
2005,08,14,13,31,25.20
2005,08,14,13,32,25.20
2005,08,14,13,33,25.20
2005,08,14,13,34,25.20
2005,08,14,13,35,25.20
2005,08,14,13,36,25.20
2005,08,14,13,37,25.20
2005,08,14,13,38,25.20
2005,08,14,13,39,25.20
2005,08,14,13,40,25.20
2005,08,14,13,41,25.20
2005,08,14,13,42,25.30
2005,08,14,13,43,25.40
2005,08,14,13,44,25.50
2005,08,14,13,45,25.50
2005,08,14,13,46,25.50
2005,08,14,13,47,25.50
2005,08,14,13,48,25.50
2005,08,14,13,49,25.50
2005,08,14,13,50,25.50
2005,08,14,13,51,25.60
2005,08,14,13,52,25.50
2005,08,14,13,53,25.50
2005,08,14,13,54,25.50
2005,08,14,13,55,25.60
2005,08,14,13,56,25.60
2005,08,14,13,57,25.60
2005,08,14,13,58,25.70
2005,08,14,13,59,25.80
2005,08,14,14,00,25.80
2005,08,14,14,01,25.90
2005,08,14,14,02,26.10
2005,08,14,14,03,26.20
2005,08,14,14,04,26.30
2005,08,14,14,05,26.50
2005,08,14,14,06,26.60
2005,08,14,14,07,26.60
2005,08,14,14,08,26.70
2005,08,14,14,09,26.70
2005,08,14,14,10,26.70
2005,08,14,14,11,26.70
2005,08,14,14,12,26.80
2005,08,14,14,13,26.80
2005,08,14,14,14,26.80
2005,08,14,14,15,26.80
2005,08,14,14,16,26.80
2005,08,14,14,17,26.80
2005,08,14,14,18,26.70
2005,08,14,14,19,26.80
2005,08,14,14,20,26.90
2005,08,14,14,21,26.90
2005,08,14,14,22,26.90
2005,08,14,14,23,26.90
2005,08,14,14,24,27.10
2005,08,14,14,25,27.10
2005,08,14,14,26,27.20
2005,08,14,14,27,27.10
2005,08,14,14,28,27.10
2005,08,14,14,29,27.10
2005,08,14,14,30,27.10
2005,08,14,14,31,27.20
2005,08,14,14,32,27.20
2005,08,14,14,33,27.40
2005,08,14,14,34,27.50
2005,08,14,14,35,27.60
2005,08,14,14,36,27.60
2005,08,14,14,37,27.50
2005,08,14,14,38,27.40
2005,08,14,14,39,27.30
2005,08,14,14,40,27.10
2005,08,14,14,41,26.90
2005,08,14,14,42,26.50
2005,08,14,14,43,26.30
2005,08,14,14,44,26.20
2005,08,14,14,45,26.10
2005,08,14,14,46,26.10
2005,08,14,14,47,26.10
2005,08,14,14,48,26.10
2005,08,14,14,49,26.10
2005,08,14,14,50,26.10
2005,08,14,14,51,26.00
2005,08,14,14,52,25.90
2005,08,14,14,53,25.90
2005,08,14,14,54,25.90
2005,08,14,14,55,26.00
2005,08,14,14,56,25.90
2005,08,14,14,57,25.70
2005,08,14,14,58,25.60
2005,08,14,14,59,25.50
2005,08,14,15,00,25.50
2005,08,14,15,01,25.50
2005,08,14,15,02,25.50
2005,08,14,15,03,25.40
2005,08,14,15,04,25.40
2005,08,14,15,05,25.40
2005,08,14,15,06,25.40
2005,08,14,15,07,25.40
2005,08,14,15,08,25.40
2005,08,14,15,09,25.50
2005,08,14,15,10,25.50
2005,08,14,15,11,25.60
2005,08,14,15,12,25.70
2005,08,14,15,13,25.80
2005,08,14,15,14,25.80
2005,08,14,15,15,25.90
2005,08,14,15,16,25.90
2005,08,14,15,17,25.90
2005,08,14,15,18,25.90
2005,08,14,15,19,25.90
2005,08,14,15,20,25.90
2005,08,14,15,21,25.90
2005,08,14,15,22,26.00
2005,08,14,15,23,26.00
2005,08,14,15,24,26.00
2005,08,14,15,25,26.00
2005,08,14,15,26,26.00
2005,08,14,15,27,25.90
2005,08,14,15,28,25.90
2005,08,14,15,29,25.90
2005,08,14,15,30,25.90
2005,08,14,15,31,25.90
2005,08,14,15,32,25.90
2005,08,14,15,33,25.80
2005,08,14,15,34,25.80
2005,08,14,15,35,25.80
2005,08,14,15,36,25.80
2005,08,14,15,37,25.80
2005,08,14,15,38,25.80
2005,08,14,15,39,25.90
2005,08,14,15,40,26.00
2005,08,14,15,41,26.10
2005,08,14,15,42,26.20
2005,08,14,15,43,26.20
2005,08,14,15,44,26.20
2005,08,14,15,45,26.20
2005,08,14,15,46,26.20
2005,08,14,15,47,26.30
2005,08,14,15,48,26.30
2005,08,14,15,49,26.30
2005,08,14,15,50,26.40
2005,08,14,15,51,26.50
2005,08,14,15,52,26.70
2005,08,14,15,53,26.80
2005,08,14,15,54,26.80
2005,08,14,15,55,26.80
2005,08,14,15,56,26.90
2005,08,14,15,57,27.20
2005,08,14,15,58,27.30
2005,08,14,15,59,27.30
2005,08,14,16,00,27.20
2005,08,14,16,01,27.20
2005,08,14,16,02,27.10
2005,08,14,16,03,27.10
2005,08,14,16,04,27.10
2005,08,14,16,05,27.00
2005,08,14,16,06,26.90
2005,08,14,16,07,26.90
2005,08,14,16,08,27.00
2005,08,14,16,09,27.10
2005,08,14,16,10,27.00
2005,08,14,16,11,26.80
2005,08,14,16,12,26.90
2005,08,14,16,13,26.90
2005,08,14,16,14,26.90
2005,08,14,16,15,26.90
2005,08,14,16,16,26.80
2005,08,14,16,17,26.80
2005,08,14,16,18,26.60
2005,08,14,16,19,26.60
2005,08,14,16,20,26.60
2005,08,14,16,21,26.60
2005,08,14,16,22,26.60
2005,08,14,16,23,26.60
2005,08,14,16,24,26.60
2005,08,14,16,25,26.60
2005,08,14,16,26,26.70
2005,08,14,16,27,26.70
2005,08,14,16,28,26.80
2005,08,14,16,29,26.80
2005,08,14,16,30,26.80
2005,08,14,16,31,26.80
2005,08,14,16,32,26.70
2005,08,14,16,33,26.60
2005,08,14,16,34,26.60
2005,08,14,16,35,26.60
2005,08,14,16,36,26.60
2005,08,14,16,37,26.60
2005,08,14,16,38,26.60
2005,08,14,16,39,26.70
2005,08,14,16,40,26.80
2005,08,14,16,41,26.80
2005,08,14,16,42,26.80
2005,08,14,16,43,26.80
2005,08,14,16,44,26.90
2005,08,14,16,45,27.00
2005,08,14,16,46,27.10
2005,08,14,16,47,27.30
2005,08,14,16,48,27.30
2005,08,14,16,49,27.40
2005,08,14,16,50,27.60
2005,08,14,16,51,27.60
2005,08,14,16,52,27.60
2005,08,14,16,53,27.50
2005,08,14,16,54,27.40
2005,08,14,16,55,27.30
2005,08,14,16,56,27.30
2005,08,14,16,57,27.20
2005,08,14,16,58,27.20
2005,08,14,16,59,27.20
2005,08,14,17,00,27.20
2005,08,14,17,01,27.20
2005,08,14,17,02,27.20
2005,08,14,17,03,27.30
2005,08,14,17,04,27.30
2005,08,14,17,05,27.30
2005,08,14,17,06,27.20
2005,08,14,17,07,27.10
2005,08,14,17,08,27.10
2005,08,14,17,09,27.10
2005,08,14,17,10,27.10
2005,08,14,17,11,27.10
2005,08,14,17,12,27.10
2005,08,14,17,13,27.10
2005,08,14,17,14,27.00
2005,08,14,17,15,26.90
2005,08,14,17,16,26.90
2005,08,14,17,17,26.80
2005,08,14,17,18,26.70
2005,08,14,17,19,26.70
2005,08,14,17,20,26.80
2005,08,14,17,21,26.80
2005,08,14,17,22,26.80
2005,08,14,17,23,26.80
2005,08,14,17,24,26.80
2005,08,14,17,25,26.80
2005,08,14,17,26,26.80
2005,08,14,17,27,26.90
2005,08,14,17,28,26.90
2005,08,14,17,29,26.90
2005,08,14,17,30,26.90
2005,08,14,17,31,26.90
2005,08,14,17,32,26.90
2005,08,14,17,33,26.90
2005,08,14,17,34,26.90
2005,08,14,17,35,26.90
2005,08,14,17,36,26.80
2005,08,14,17,37,26.80
2005,08,14,17,38,26.80
2005,08,14,17,39,26.70
2005,08,14,17,40,26.70
2005,08,14,17,41,26.70
2005,08,14,17,42,26.70
2005,08,14,17,43,26.70
2005,08,14,17,44,26.80
2005,08,14,17,45,26.80
2005,08,14,17,46,26.90
2005,08,14,17,47,27.10
2005,08,14,17,48,27.10
2005,08,14,17,49,27.20
2005,08,14,17,50,27.30
2005,08,14,17,51,27.30
2005,08,14,17,52,27.30
2005,08,14,17,53,27.30
2005,08,14,17,54,27.30
2005,08,14,17,55,27.30
2005,08,14,17,56,27.20
2005,08,14,17,57,27.20
2005,08,14,17,58,27.10
2005,08,14,17,59,27.00
2005,08,14,18,00,26.90
2005,08,14,18,01,26.90
2005,08,14,18,02,26.90
2005,08,14,18,03,26.90
2005,08,14,18,04,26.90
2005,08,14,18,05,26.80
2005,08,14,18,06,26.80
2005,08,14,18,07,26.80
2005,08,14,18,08,26.80
2005,08,14,18,09,26.90
2005,08,14,18,10,26.90
2005,08,14,18,11,26.90
2005,08,14,18,12,26.90
2005,08,14,18,13,26.80